Piacenza Airport


Codes: LIMS/QPZ
Name: Piacenza Airport
City: Piacenza
Country: Italy
Elevation: 456 ft.

Photos at Piacenza Airport


   Photos courtesy of SpottingLog. You can add your own sightings and photos by signing up for a free trial today.



No photos found.

Weather at Piacenza Airport


Time (UTC)DescriptionTempratureWindCloud coverageVisibilityPressureHumidity
16-Jun-2024 09:00Light Rain23°C4 mph, NE75%10000m1009hPa58%
16-Jun-2024 12:00Light Rain23°C4 mph, N64%10000m1010hPa60%
16-Jun-2024 15:00Light Rain24°C4 mph, N36%10000m1010hPa61%
16-Jun-2024 18:00Light Rain22°C2 mph, N14%10000m1011hPa80%
16-Jun-2024 21:00Clear Sky17°C7 mph, S3%10000m1014hPa80%
17-Jun-2024 00:00Clear Sky16°C7 mph, SW8%10000m1015hPa62%
17-Jun-2024 03:00Few Clouds15°C4 mph, SW15%10000m1015hPa68%
17-Jun-2024 06:00Few Clouds19°C2 mph, W23%10000m1016hPa73%
17-Jun-2024 09:00Few Clouds22°C4 mph, NE22%10000m1017hPa71%
17-Jun-2024 12:00Few Clouds25°C7 mph, NE21%10000m1016hPa64%
17-Jun-2024 15:00Broken Clouds25°C4 mph, NE72%10000m1016hPa65%
17-Jun-2024 18:00Scattered Clouds23°C2 mph, NE44%10000m1016hPa80%
17-Jun-2024 21:00Scattered Clouds19°C7 mph, SW39%10000m1017hPa86%
18-Jun-2024 00:00Scattered Clouds18°C7 mph, SW48%10000m1018hPa75%
18-Jun-2024 03:00Few Clouds17°C4 mph, SW20%10000m1018hPa71%
18-Jun-2024 06:00Few Clouds20°C2 mph, SW15%10000m1019hPa73%
18-Jun-2024 09:00Clear Sky24°C4 mph, NE5%10000m1019hPa72%
18-Jun-2024 12:00Clear Sky27°C7 mph, NE7%10000m1018hPa64%
18-Jun-2024 15:00Broken Clouds27°C4 mph, NE77%10000m1017hPa65%
18-Jun-2024 18:00Broken Clouds25°C2 mph, NE78%10000m1017hPa81%
18-Jun-2024 21:00Scattered Clouds21°C7 mph, S25%10000m1018hPa89%
19-Jun-2024 00:00Broken Clouds20°C4 mph, SW55%10000m1018hPa82%
19-Jun-2024 03:00Overcast Clouds19°C4 mph, SW99%10000m1017hPa71%
19-Jun-2024 06:00Overcast Clouds22°C2 mph, W96%10000m1018hPa76%
19-Jun-2024 09:00Scattered Clouds26°C2 mph, N38%10000m1018hPa67%
19-Jun-2024 12:00Few Clouds28°C4 mph, N19%10000m1017hPa63%
19-Jun-2024 15:00Clear Sky29°C4 mph, NE0%10000m1017hPa63%
19-Jun-2024 18:00Clear Sky27°C4 mph, NE0%10000m1017hPa81%
19-Jun-2024 21:00Overcast Clouds24°C4 mph, S100%10000m1018hPa86%
20-Jun-2024 00:00Broken Clouds22°C2 mph, S55%10000m1019hPa87%
20-Jun-2024 03:00Broken Clouds21°C4 mph, S54%10000m1019hPa91%
20-Jun-2024 06:00Scattered Clouds24°C2 mph, E42%10000m1020hPa83%
20-Jun-2024 09:00Clear Sky26°C4 mph, E1%10000m1020hPa74%
20-Jun-2024 12:00Scattered Clouds29°C7 mph, E50%10000m1019hPa67%
20-Jun-2024 15:00Overcast Clouds29°C4 mph, NE93%10000m1018hPa73%
20-Jun-2024 18:00Broken Clouds27°C4 mph, E82%10000m1018hPa82%
20-Jun-2024 21:00Overcast Clouds24°C4 mph, S100%10000m1018hPa88%
21-Jun-2024 00:00Overcast Clouds23°C2 mph, W100%10000m1018hPa91%
21-Jun-2024 03:00Overcast Clouds22°C4 mph, W95%10000m1016hPa92%
21-Jun-2024 06:00Broken Clouds25°C4 mph, NW81%10000m1018hPa85%